Regional Weather Roundup
Issued by NWS Boston, MA

Current Version | Previous Version | Text Only | Print | Product List | Glossary On
Versions: 1 2 3 4 5 6 7 8 9 10 11 12 13 14 15 16 17 18 19 20 21 22 23 24 25 26 27 28 29 30 31 32 33 34 35 36 37 38 39 40 41 42 43 44 45 46 47 48 49 50
000 ASUS41 KBOX 222010 RWRBOX REGIONAL WEATHER ROUNDUP NATIONAL WEATHER SERVICE BOSTON/NORTON MA 400 PM EDT MON OCT 22 2018 NOTE: "FAIR" INDICATES FEW OR NO CLOUDS BELOW 12,000 FEET WITH NO SIGNIFICANT WEATHER AND/OR OBSTRUCTIONS TO VISIBILITY. MAZALL-222100- EASTERN MASSACHUSETTS CITY SKY/WX TMP DP RH WIND PRES REMARKS BOSTON FAIR 50 28 42 W13 30.15R BEVERLY PTSUNNY 50 26 39 W8 30.12S LAWRENCE CLOUDY 53 27 36 SW10 30.14S BEDFORD FAIR 49 29 46 SW9 30.13S BLUE HILL N/A 45 29 53 W12G20 30.13R NORWOOD PTSUNNY 51 30 44 W12 30.15S MARSHFIELD PTSUNNY 50 30 46 VRB5G15 30.15S PLYMOUTH PTSUNNY 51 30 44 SW9 30.16S TAUNTON PTSUNNY 50 29 44 W7 30.16S NEW BEDFORD PTSUNNY 50 31 48 W7 30.16S $$ MAZALL-222100- CAPE COD AND THE ISLANDS CITY SKY/WX TMP DP RH WIND PRES REMARKS FALMOUTH PTSUNNY 48 28 46 W14 30.18R HYANNIS FAIR 51 30 44 SW14G22 30.15S CHATHAM FAIR 50 31 48 SW8 30.18S PROVINCETOWN PTSUNNY 49 30 48 SW15 30.17R NANTUCKET CLOUDY 49 31 49 W13 30.18S MARTHAS VNYRD CLOUDY 48 36 63 W6 30.18S $$ MAZALL-222100- CENTRAL AND WESTERN MASSACHUSETTS CITY SKY/WX TMP DP RH WIND PRES REMARKS WORCESTER PTSUNNY 43 29 57 W12 30.13S FITCHBURG FAIR 48 28 46 S9 30.14S ORANGE CLOUDY 49 27 42 W8 30.13F SPRINGFIELD PTSUNNY 48 31 51 S12 30.13F WESTFIELD CLOUDY 49 29 46 SW8 30.14S NORTH ADAMS CLOUDY 45 31 58 SW5 30.11F PITTSFIELD CLOUDY 44 28 53 S8 30.10S $$ RIZALL-222100- RHODE ISLAND CITY SKY/WX TMP DP RH WIND PRES REMARKS PROVIDENCE PTSUNNY 49 29 46 W10 30.17S NEWPORT CLOUDY 49 31 49 VRB3 30.16S BLOCK ISLAND CLOUDY 49 36 61 W16 30.18F SMITHFIELD CLOUDY 47 28 47 W8 30.15S WESTERLY CLOUDY 50 31 48 VRB6 30.19R $$ CTZALL-222100- CONNECTICUT CITY SKY/WX TMP DP RH WIND PRES REMARKS BRADLEY INTL PTSUNNY 49 29 46 SW12 30.15F HARTFORD CLOUDY 48 32 53 SW7 30.16F BRIDGEPORT PTSUNNY 51 31 46 W8 30.18S DANBURY PTSUNNY 47 31 53 SW10 30.17F GROTON CLOUDY 49 31 49 W10 30.18S NEW HAVEN CLOUDY 51 32 48 SW7 30.18S CHESTER PTSUNNY 48 30 49 W6 30.17S MERIDEN CLOUDY 49 31 49 SW7 30.17F WILLIMANTIC CLOUDY 47 31 53 SW5 30.17F OXFORD CLOUDY 46 31 55 SW8 30.16F $$ MEZ002-015-021-024-NHZ003-005-008-011-012-014-VTZ005-008-222100- NORTHERN NEW ENGLAND CITY SKY/WX TMP DP RH WIND PRES REMARKS PORTLAND ME FAIR 49 22 34 W14G21 30.10F BANGOR ME FAIR 43 18 36 W10G20 30.07F CONCORD NH FAIR 47 24 40 W6 30.11F MANCHESTER NH PTSUNNY 49 23 36 VRB5 30.11R NASHUA NH PTSUNNY 49 27 42 VRB7 30.13S PORTSMOUTH NH PTSUNNY 49 22 34 W8 30.11 JAFFREY NH CLOUDY 45 25 45 VRB5 30.11S KEENE NH NOT AVBL BURLINGTON VT CLOUDY 44 26 49 SE3 30.10F MT. WASHINGTON SNOWSHWR 14 14 100 W52G59 N/A VSB 0 WCI -12 $$ NYZ052-076-222100- EASTERN NEW YORK CITY SKY/WX TMP DP RH WIND PRES REMARKS ALBANY PTSUNNY 47 30 51 S13G18 30.12F NEW YORK CITY PTSUNNY 51 30 44 SW8 30.17F $$ ANZALL-222100- MARINE OBSERVATIONS STATION/POSITION TIME TEMP WIND PRES VSBY WAVE AIR SEA DIR/SP/G HT/PER (UTC) (F) (DEG/KT/KT) (MB) (MI) (FT/S) BOSTON BUOY 1950 50 56 230/ 10/ 12 1020.3R 2/10 BUZZARDS BAY 1900 48 280/ 13/ 15 1022.3S NANTUCKET SOUND 1950 49 58 250/ 14/ 19 1021.7F 2/ 4 MASS BAY-STELLWA 1904 48 55 280/ 6/ 8 1019.6F 1 7/8 1/ 3 ISLE OF SHOALS 2000 48 310/ 12/ 13 1019.8R S OF BLOCK IS 1943 62 N/A 3/ 4 $$ ......................KEY......................... SKY/WX - SKY CONDITION/PRESENT WEATHER TMP - TEMPERATURE IN FAHRENHEIT DWPT - DEWPOINT IN FAHRENHEIT RH - RELATIVE HUMIDITY IN PERCENT WIND - DIRECTION AND SPEED IN MPH PRES - MEAN SEA LEVEL PRESSURE IN INCHES OF HG WCI - WIND CHILL INDEX VSB - VISIBILITY IN MILES HX - HEAT INDEX TC - TEMPERATURE IN CELSIUS VRB - VARIABLE WIND DIRECTION N/A - NOT AVAILABLE

USA.gov is the U.S. government's official web portal to all federal, state and local government web resources and services.